Location: Derby
(52.9213°N, 1.4761°W)
Time: 15:08:50
(UTC+01:00)

Tiros 1 despin weight - All Passes

Search period start: 18 May 2025 00:00
Search period end: 28 May 2025 00:00
Orbit: 563 x 602 km, 48.2° (Epoch: 17 May)

Date Brightness Start Highest point End Pass type
(mag) Time Alt. Az. Time Alt. Az. Time Alt. Az.
18 May - 04:21:03 10° S 04:23:58 17° SSE 04:26:56 10° ESE visible
18 May - 05:59:51 10° SW 06:03:59 38° SSE 06:08:08 10° E daylight
18 May - 07:40:04 10° WSW 07:44:20 45° S 07:48:36 10° ESE daylight
18 May - 09:20:47 10° W 09:24:33 27° SSW 09:28:17 10° SSE daylight
19 May - 04:25:10 10° SSW 04:28:39 23° SSE 04:32:09 10° E daylight
19 May - 06:04:34 10° WSW 06:08:47 43° S 06:13:02 10° E daylight
19 May - 07:44:56 10° W 07:49:08 41° S 07:53:21 10° ESE daylight
19 May - 09:25:53 10° W 09:29:14 21° SSW 09:32:35 10° SSE daylight
20 May - 04:29:31 10° SW 04:33:20 29° SSE 04:37:12 10° E daylight
20 May - 06:09:20 10° WSW 06:13:35 46° S 06:17:52 10° ESE daylight
20 May - 07:49:49 10° W 07:53:55 36° SSW 07:58:01 10° SE daylight
20 May - 09:31:12 10° WSW 09:33:52 16° SW 09:36:32 10° S daylight
21 May - 02:55:47 10° S 02:58:09 14° SE 03:00:34 10° ESE visible
21 May - 04:34:03 10° SW 04:38:04 35° SSE 04:42:08 10° E daylight
21 May - 06:14:08 10° WSW 06:18:23 46° S 06:22:40 10° ESE daylight
21 May - 07:54:45 10° W 07:58:39 30° SSW 08:02:34 10° SE daylight
21 May - 09:37:11 10° WSW 09:38:26 11° SW 09:39:41 10° SSW daylight
22 May - 02:59:37 10° SSW 03:02:46 19° SSE 03:05:57 10° ESE visible
22 May - 04:38:41 10° WSW 04:42:49 40° SSE 04:47:00 10° E daylight
22 May - 06:18:57 10° W 06:23:11 44° S 06:27:25 10° ESE daylight
22 May - 07:59:44 10° W 08:03:21 24° SSW 08:06:57 10° SSE daylight
23 May - 03:03:49 10° SSW 03:07:24 25° SSE 03:11:03 10° E visible
23 May - 04:43:22 10° WSW 04:47:35 44° S 04:51:51 10° ESE daylight
23 May - 06:23:47 10° W 06:27:57 39° SSW 06:32:06 10° SE daylight
23 May - 08:04:53 10° WSW 08:07:59 19° SSW 08:11:05 10° SSE daylight
24 May - 01:30:48 10° SSE 01:32:18 12° SE 01:33:48 10° ESE visible
24 May - 03:08:12 10° SW 03:12:05 31° SSE 03:16:01 10° E visible
24 May - 04:48:07 10° WSW 04:52:22 46° S 04:56:38 10° ESE daylight
24 May - 06:28:39 10° W 06:32:41 34° SSW 06:36:41 10° SE daylight
24 May - 08:10:19 10° WSW 08:12:33 14° SW 08:14:48 10° S daylight
25 May - 01:34:07 10° S 01:36:50 16° SE 01:39:34 10° ESE visible
25 May - 03:12:45 10° SW 03:16:48 37° SSE 03:20:54 10° E visible
25 May - 04:52:54 10° WSW 04:57:07 45° S 05:01:23 10° ESE daylight
25 May - 06:33:34 10° W 06:37:21 28° SSW 06:41:09 10° SE daylight
26 May - 01:38:05 10° SSW 01:41:25 21° SSE 01:44:47 10° E visible
26 May - 03:17:22 10° WSW 03:21:32 42° S 03:25:43 10° E visible
26 May - 04:57:41 10° W 05:01:52 42° S 05:06:05 10° ESE daylight
26 May - 06:38:34 10° W 06:41:59 22° SSW 06:45:25 10° SSE daylight
27 May - 01:42:20 10° SW 01:46:03 27° SSE 01:49:47 10° E visible
27 May - 03:22:03 10° WSW 03:26:15 45° S 03:30:30 10° ESE visible
27 May - 05:02:30 10° W 05:06:36 37° SSW 05:10:42 10° SE daylight
27 May - 06:43:45 10° WSW 06:46:34 17° SW 06:49:22 10° S daylight
